Weather in Songyuan

China     27°31′22″N   118°46′13″E
temp.,
°C
wind,
m/s
gust,
m/s
humid.,
%
clouds,
%
prec.,
mm/h
press.,
hPa
HPBL,
m
20 september, mon
mon2023:00+24se1178100 0.0 101128
02:00+22ese11907 0.0 101017
05:00+22se11910 0.0 101122
08:00+26s12780 0.0 1012307
11:00+29wsw24673 1.6 10111184
14:00+29sw357338 3.4 10091063
17:00+27ssw12848 2.2 100968
20:00+23nnw019240 2.7 101111
21 september, tue
tue2123:00+22n119625 0.0 101111
02:00+21ne119894 2.0 101112
05:00+21nne119849 0.0 101111
08:00+23nnw009230 0.0 1012236
11:00+30wsw135921 0.0 10111355
14:00+32w34430 0.0 10081985
17:00+29ssw01643 0.0 100814
20:00+23ne11740 0.0 101012
22 september, wed
wed2223:00+21ne11820 0.0 101211
02:00+20ne11850 0.0 101113
05:00+19ene11870 0.0 101211
08:00+24ene00706 0.0 1014191
11:00+31w11495 0.0 1013851
14:00+34w01325 0.0 10101778
17:00+29nnw00523 0.0 101011
20:00+23e11635 0.0 101215
23 september, thu
thu2323:00+21ese11755 0.0 101416
02:00+20e118512 0.0 101413
05:00+19ese11925 0.0 101411
08:00+24se11741 0.0 1016217
11:00+31ssw11470 0.0 1015928
14:00+33s01340 0.0 10121694
17:00+29ene11530 0.0 101211
20:00+23ese11630 0.0 101413
24 september, fri
fri2423:00+21ese11720 0.0 101515
02:00+20ese11790 0.0 101514
05:00+19e11864 0.0 101613
08:00+24ese11715 0.0 1017218
11:00+31wsw11473 0.0 1016826
14:00+33wsw11383 0.0 10131563
17:00+29n00550 0.0 101311
20:00+23ese22690 0.0 101521